Kerrville, TX

12:00 PM CDT on May 26, 2017 (GMT -0500)
Kerrville Municipal-Schreiner

Weather History for KERV - October, 2012

Change the Weather History Date:

Tuesday, October 23, 2012

  Actual Average (KHDO) Record (KHDO)
Temperature  
Mean Temperature 73 °F -  
Max Temperature 78 °F 78 °F 106 °F (2003)
Min Temperature 68 °F 56 °F 35 °F (1996)
Cooling Degree Days 8    
Growing Degree Days 23 (Base 50)    
Moisture  
Dew Point 67 °F    
Average Humidity 83    
Maximum Humidity 88    
Minimum Humidity 69    
Precipitation  
Precipitation 0.00 in - - ()
Sea Level Pressure  
Sea Level Pressure 29.97 in    
Wind  
Wind Speed 10 mph (SSE)    
Max Wind Speed 17 mph    
Max Gust Speed 23 mph    
Visibility 10 miles    
Events      
Averages and records for this station are not official NWS values.
T = Trace of Precipitation, MM = Missing Value Source: NWS Daily Summary

Daily Weather History Graph

Daily Weather History Graph

Search for Another Location

Airport or City:

Trip Planner

Search our weather history database for the weather conditions in past years. The results will help you decide how hot, cold, wet, or windy it might be!

Date:

Astronomy

Oct. 23, 2012 Rise Set
Actual Time 7:43 AM CDT 6:56 PM CDT
Civil Twilight 7:19 AM CDT 7:21 PM CDT
Nautical Twilight 6:51 AM CDT 7:49 PM CDT
Astronomical Twilight 6:23 AM CDT 8:16 PM CDT
Moon 3:18 PM CDT (10/23) 2:02 AM CDT (10/23)
Length of Visible Light 12h 01m
Length of Day
11h 12m
Waxing Gibbous, 67% of the Moon is Illuminated
Oct 23
Waxing Gibbous
Oct 29
Full
Nov 6
Last Quarter
Nov 13
New
Nov 20
First Quarter

Hourly Weather History & Observations

Time (CDT) Temp. Dew Point Humidity Pressure Visibility Wind Dir Wind Speed Gust Speed Precip Events Conditions
12:15 AM 73.4 °F 68.0 °F 83% 29.97 in 10.0 mi SE 13.8 mph 18.4 mph N/A   Overcast
12:35 AM 71.6 °F 68.0 °F 88% 29.97 in 10.0 mi SE 13.8 mph 20.7 mph N/A   Overcast
1:15 AM 71.6 °F 68.0 °F 88% 29.96 in 10.0 mi SSE 17.3 mph 20.7 mph N/A   Overcast
1:35 AM 71.6 °F 68.0 °F 88% 29.96 in 10.0 mi SSE 12.7 mph 23.0 mph N/A   Overcast
1:55 AM 71.6 °F 68.0 °F 88% 29.96 in 10.0 mi SSE 12.7 mph 19.6 mph N/A   Overcast
2:35 AM 71.6 °F 66.2 °F 83% 29.96 in 10.0 mi SSE 11.5 mph - N/A   Overcast
2:55 AM 71.6 °F 66.2 °F 83% 29.97 in 10.0 mi SSE 13.8 mph 19.6 mph N/A   Overcast
3:15 AM 71.6 °F 66.2 °F 83% 29.96 in 10.0 mi SSE 12.7 mph 17.3 mph N/A   Overcast
3:35 AM 71.6 °F 66.2 °F 83% 29.96 in 10.0 mi South 11.5 mph - N/A   Overcast
3:55 AM 71.6 °F 66.2 °F 83% 29.95 in 10.0 mi South 10.4 mph 19.6 mph N/A   Overcast
4:15 AM 71.6 °F 66.2 °F 83% 29.95 in 10.0 mi South 11.5 mph - N/A   Overcast
4:35 AM 71.6 °F 66.2 °F 83% 29.95 in 10.0 mi South 10.4 mph - N/A   Overcast
4:55 AM 71.6 °F 66.2 °F 83% 29.95 in 10.0 mi SSE 9.2 mph - N/A   Overcast
5:15 AM 71.6 °F 66.2 °F 83% 29.95 in 10.0 mi SSE 8.1 mph - N/A   Overcast
5:55 AM 71.6 °F 66.2 °F 83% 29.96 in 10.0 mi SSE 8.1 mph - N/A   Overcast
6:15 AM 71.6 °F 66.2 °F 83% 29.96 in 10.0 mi South 8.1 mph - N/A   Overcast
6:35 AM 71.6 °F 68.0 °F 88% 29.97 in 10.0 mi South 10.4 mph - N/A   Drizzle
6:55 AM 71.6 °F 68.0 °F 88% 29.97 in 10.0 mi South 5.8 mph - N/A   Light Drizzle
7:15 AM 71.6 °F 68.0 °F 88% 29.98 in 10.0 mi South 6.9 mph - N/A   Overcast
8:55 AM 71.6 °F 68.0 °F 88% 29.99 in 10.0 mi SSE 10.4 mph - N/A   Overcast
9:35 AM 71.6 °F 68.0 °F 88% 30.00 in 7.0 mi SSE 10.4 mph - N/A   Overcast
10:15 AM 71.6 °F 68.0 °F 88% 30.01 in 7.0 mi SSE 9.2 mph - N/A   Light Drizzle
10:35 AM 71.6 °F 68.0 °F 88% 30.01 in 10.0 mi SSE 6.9 mph - N/A   Overcast
10:55 AM 71.6 °F 68.0 °F 88% 30.01 in 10.0 mi SSE 8.1 mph - N/A   Overcast
11:15 AM 71.6 °F 68.0 °F 88% 30.01 in 10.0 mi South 6.9 mph - N/A   Overcast
11:35 AM 71.6 °F 68.0 °F 88% 30.01 in 10.0 mi SSE 10.4 mph - N/A   Overcast
11:55 AM 71.6 °F 68.0 °F 88% 30.01 in 10.0 mi SSE 10.4 mph - N/A   Overcast
12:15 PM 73.4 °F 68.0 °F 83% 30.01 in 10.0 mi SSE 9.2 mph - N/A   Overcast
12:35 PM 71.6 °F 68.0 °F 88% 30.00 in 10.0 mi SSE 6.9 mph - N/A   Overcast
12:55 PM 71.6 °F 68.0 °F 88% 30.00 in 7.0 mi South 4.6 mph - N/A   Drizzle
1:15 PM 71.6 °F 68.0 °F 88% 30.00 in 10.0 mi South 4.6 mph - N/A   Overcast
1:35 PM 71.6 °F 68.0 °F 88% 29.99 in 7.0 mi SSE 4.6 mph - N/A   Drizzle
1:55 PM 73.4 °F 69.8 °F 88% 29.98 in 10.0 mi Calm Calm - N/A   Overcast
2:15 PM 73.4 °F 68.0 °F 83% 29.98 in 10.0 mi South 5.8 mph - N/A   Overcast
2:35 PM 77.0 °F 69.8 °F 78% 29.97 in 10.0 mi SSE 6.9 mph - N/A   Overcast
3:15 PM 77.0 °F 69.8 °F 78% 29.95 in 10.0 mi South 8.1 mph - N/A   Overcast
3:35 PM 77.0 °F 68.0 °F 74% 29.95 in 10.0 mi SSE 8.1 mph - N/A   Overcast
3:55 PM 77.0 °F 68.0 °F 74% 29.95 in 10.0 mi SSE 6.9 mph - N/A   Overcast
4:15 PM 77.0 °F 68.0 °F 74% 29.95 in 10.0 mi SE 9.2 mph - N/A   Overcast
4:35 PM 77.0 °F 68.0 °F 74% 29.95 in 10.0 mi SE 8.1 mph - N/A   Overcast
4:55 PM 77.0 °F 68.0 °F 74% 29.95 in 10.0 mi SSE 9.2 mph - N/A   Overcast
5:15 PM 78.8 °F 68.0 °F 69% 29.95 in 10.0 mi SSE 6.9 mph - N/A   Overcast
5:35 PM 78.8 °F 68.0 °F 69% 29.94 in 10.0 mi SE 9.2 mph - N/A   Overcast
5:55 PM 77.0 °F 68.0 °F 74% 29.94 in 10.0 mi SE 9.2 mph - N/A   Mostly Cloudy
6:15 PM 77.0 °F 68.0 °F 74% 29.94 in 10.0 mi SE 8.1 mph - N/A   Mostly Cloudy
6:35 PM 77.0 °F 68.0 °F 74% 29.95 in 10.0 mi SE 5.8 mph - N/A   Mostly Cloudy
6:55 PM 77.0 °F 68.0 °F 74% 29.95 in 10.0 mi SE 3.5 mph - N/A   Scattered Clouds
7:15 PM 73.4 °F 66.2 °F 78% 29.95 in 10.0 mi Calm Calm - N/A   Clear
7:35 PM 73.4 °F 68.0 °F 83% 29.95 in 10.0 mi Calm Calm - N/A   Clear
7:55 PM 71.6 °F 66.2 °F 83% 29.95 in 10.0 mi Calm Calm - N/A   Clear
8:15 PM 71.6 °F 66.2 °F 83% 29.96 in 10.0 mi SE 3.5 mph - N/A   Clear
8:35 PM 69.8 °F 66.2 °F 88% 29.97 in 10.0 mi SE 3.5 mph - N/A   Clear
8:55 PM 69.8 °F 64.4 °F 83% 29.97 in 10.0 mi SE 4.6 mph - N/A   Clear
9:15 PM 68.0 °F 64.4 °F 88% 29.97 in 10.0 mi SE 3.5 mph - N/A   Clear
9:35 PM 68.0 °F 64.4 °F 88% 29.98 in 10.0 mi SE 3.5 mph - N/A   Clear
9:55 PM 68.0 °F 62.6 °F 83% 29.98 in 10.0 mi SE 4.6 mph - N/A   Clear
10:15 PM 68.0 °F 64.4 °F 88% 29.98 in 10.0 mi SE 6.9 mph - N/A   Clear
10:35 PM 71.6 °F 66.2 °F 83% 29.98 in 10.0 mi SE 9.2 mph - N/A   Clear
10:55 PM 71.6 °F 66.2 °F 83% 29.98 in 10.0 mi SSE 10.4 mph 16.1 mph N/A   Clear
11:15 PM 71.6 °F 66.2 °F 83% 29.99 in 10.0 mi SSE 8.1 mph - N/A   Clear
11:35 PM 71.6 °F 66.2 °F 83% 29.99 in 10.0 mi SSE 9.2 mph - N/A   Clear
11:55 PM 71.6 °F 66.2 °F 83% 29.99 in 10.0 mi SSE 11.5 mph - N/A   Clear